Regional Weather Roundup
Issued by NWS

Home | Current Version | Previous Version | Text Only | Print | Product List | Glossary On
Versions: 1 2 3 4 5 6 7 8 9 10 11 12 13 14 15 16 17 18 19 20 21 22 23 24 25 26 27 28 29 30 31 32 33 34 35 36 37 38 39 40 41 42 43 44 45 46 47 48 49 50
000
ASUS42 KTBW 300216
RWRFL
FLORIDA REGIONAL WEATHER ROUNDUP
NATIONAL WEATHER SERVICE TAMPA BAY RUSKIN FL
1000 PM EDT FRI JUL 29 2016

NOTE: "FAIR" INDICATES FEW OR NO CLOUDS BELOW 12,000 FEET WITH NO
SIGNIFICANT WEATHER AND/OR OBSTRUCTIONS TO VISIBILITY.

FLZ001>010-012>015-112-114-115-300300-
PANHANDLE FLORIDA

CITY           SKY/WX    TMP DP  RH WIND       PRES   REMARKS
PENSACOLA      CLEAR     80  76  87 CALM      30.01R
PENSACOLA NAS  MOCLDY    82  75  79 SW5       30.00S
MILTON NAS     PTCLDY    79  78  97 CALM      30.02
CRESTVIEW      CLOUDY    78  74  87 CALM      30.03R
DUKE FIELD     MOCLDY    79  76  90 S3        30.02R
VALPARAISO     PTCLDY    84  74  73 W2        30.02R
MARY ESTHER    PTCLDY    85  74  69 SW8       30.01R
TRI COUNTY     FAIR      78  75  90 S3        30.03R
PANAMA CITY    FAIR      81  76  84 S3        30.02R
TYNDALL AFB    PTCLDY    85  74  69 W7        30.03R
APALACHICOLA   CLEAR     84  76  76 W5        30.03R

STATION/POSITION SKY/WX   TEMP    WIND        PRES    WAVE   SWELL
                          AIR SEA DIR/SP/G            HT/PER HT/PER
                          (F)     (DEG/KT/KT) (MB)    (FT/S) (FT/S)
30.1N   87.6W              85 89  210/  8/ 10 1016.3R   1/ 6   2/ 6
29.2N   88.2W              85 88  200/  8/ 10 1016.0R
28.8N   86.0W              86 88  200/  4/  6 1017.7R   1/ 5   2/ 5
PANAMA CITY BEAC              90              1016.8
TOWER C                    85     250/  8/  9 1017.9R
28.5N   84.5W              87 90  240/  2/  4 1017.4R   1/ 5

$$
FLZ011-016>038-118-127-128-134-139-239-300300-
NORTH FLORIDA

CITY           SKY/WX    TMP DP  RH WIND       PRES   REMARKS
MARIANNA       CLEAR     81  76  84 SW6       30.01R
TALLAHASSEE    CLEAR     84  77  79 S3        30.02R
PERRY          CLEAR     82  75  81 CALM      30.04R
LIVE OAK       FAIR      84  75  74 SW5       30.05R
CROSS CITY       N/A     82  74  76 CALM      30.03R
LAKE CITY      FAIR      82  72  69 W9        30.03R
GAINESVILLE    CLOUDY    81  75  82 S5        30.03R
WILLISTON      FAIR      79  73  83 CALM      30.04R
MAYPORT NAS    CLOUDY    84  72  67 SW9       30.01R
JACKSONVILLE   MOCLDY    85  73  67 S8        30.00R
JAX NAS        CLOUDY    87  72  60 S13       30.02R
JAX CECIL      CLOUDY    82  73  74 SE3       30.02R
FERNANDINA BEA FAIR      88  75  66 S9        30.00R HX  97
ST AUGUSTINE   CLOUDY    82  72  71 SW5       30.03R
PALM COAST     FAIR      78  73  84 CALM      30.03S

STATION/POSITION SKY/WX   TEMP    WIND        PRES    WAVE   SWELL
                          AIR SEA DIR/SP/G            HT/PER HT/PER
                          (F)     (DEG/KT/KT) (MB)    (FT/S) (FT/S)
SHELL POINT                86     240/  4/  5 1014.9
KEATON BEACH               87     250/ 10/ 12 1016.8R
CEDAR KEY                  87     290/  3/  4 1017.4R
FERNANDINA                    88              1015.5
30.7N   81.3W                 86                N/A     3/ 4
MAYPORT                       87              1016.2
31.4N   80.9W              87 87  180/ 21/ 25 1014.9R   3/ 4
ST AUGUSTINE               81 86  220/  9/ 12 1017.7R

$$
FLZ040-043>046-052-053-057-058-063-144-300300-
INTERIOR CENTRAL FLORIDA

CITY           SKY/WX    TMP DP  RH WIND       PRES   REMARKS
OCALA          MOCLDY    77  72  83 CALM      30.04S
THE VILLAGES     N/A     81  75  83 MISG      29.95R
LEESBURG       MOCLDY    80  74  81 S7        30.05R
SANFORD        CLOUDY    79  73  82 CALM      30.03S
ORLANDO EXEC   CLOUDY    79  73  82 CALM      30.04R
ORLANDO INTL   CLOUDY    77  74  90 VRB3      30.04R
KISSIMMEE      CLOUDY    78  75  90 CALM      30.05
WINTER HAVEN   CLOUDY    81  75  82 VRB3      30.05R
LAKELAND       CLEAR     81  79  94 CALM      30.04R
BARTOW         FAIR      79  77  94 CALM      30.04R
OKEECHOBEE     CLEAR     75  73  94 N5        30.04R

$$
FLZ041-047-054-059-064-141-147-300300-
EAST CENTRAL FLORIDA

CITY           SKY/WX    TMP DP  RH WIND       PRES   REMARKS
DAYTONA BEACH  MOCLDY    78  73  84 S5        30.03S
NEW SMYRNA BEA PTCLDY    81  73  78 SW8       30.04S
JFK SPACE CTR  CLEAR     78  72  81 CALM      30.02S
CAPE CANAVERAL CLEAR     80  74  80 NW2       30.02R
PATRICK AFB    CLEAR     82  73  73 SW7       30.03R
MELBOURNE      CLEAR     79  71  76 CALM      30.04R
VERO BEACH     CLEAR     78  71  79 NW3       30.04R
FT PIERCE      CLEAR     78  73  84 CALM      30.03R

STATION/POSITION SKY/WX   TEMP    WIND        PRES    WAVE   SWELL
                          AIR SEA DIR/SP/G            HT/PER HT/PER
                          (F)     (DEG/KT/KT) (MB)    (FT/S) (FT/S)
28.5N   80.2W              83 86  240/ 10/ 12 1017.1S
28.9N   78.5W              85 87  260/  6/  8 1016.7F
TRIDENT PIER                  87              1016.9
28.4N   80.5W                 82                N/A     1/ 8
27.5N   80.2W                 84                N/A     1/ 8

$$
FLZ050-056-061-142-242-148-248-149-249-151-251-155-255-
160-260-300300-
WEST CENTRAL FLORIDA

CITY           SKY/WX    TMP DP  RH WIND       PRES   REMARKS
CRYSTAL RIVER  FAIR      77  75  94 CALM      30.04R
INVERNESS      FAIR      79  77  94 CALM      30.05R
BROOKSVILLE    PTCLDY    80  77  90 CALM      30.05R
ZEPHYRHILLS    FAIR      66  65  96 CALM      30.05R
CLEARWATER AIR FAIR      82  77  83 CALM      30.03S
ST PETE CLEARW CLOUDY    84  74  71 W5        30.03S
TAMPA INTL     MOCLDY    85  76  74 NW5       30.03S
TAMPA EXEC     MOCLDY    81  79  94 CALM      30.04R
PLANT CITY     CLOUDY    82  79  89 CALM      30.05S
MACDILL AFB    CLOUDY    84  79  84 W5        30.03S HX  96
PETER O KNIGHT CLOUDY    88  79  74 CALM      30.03S HX 102
ST PETERSBURG  CLOUDY    85  76  74 W6        30.02R
SARASOTA       PTCLDY    83  76  79 CALM      30.02S
VENICE         NOT AVBL

STATION/POSITION SKY/WX   TEMP    WIND        PRES    WAVE   SWELL
                          AIR SEA DIR/SP/G            HT/PER HT/PER
                          (F)     (DEG/KT/KT) (MB)    (FT/S) (FT/S)
27.3N   84.2W                 89                N/A     1/ 4
CLEARWATER BEACH              89              1017.0
MIDDLE TAMPA BAY                              1017.2
VENICE                     82 91   60/  3/  4 1016.5R

$$
FLZ066-069-070-075>078-162-262-165-265-300300-
SOUTHWEST FLORIDA AND KEYS

CITY           SKY/WX    TMP DP  RH WIND       PRES   REMARKS
PUNTA GORDA    CLOUDY    82  77  84 CALM      30.04R
FT MYERS       CLOUDY    79  77  94 SE5       30.03R
SOUTHWEST INTL CLOUDY    79  75  87 S6        30.03S
NAPLES         CLOUDY    82  76  81 E6        30.03R
MARCO ISLAND   CLOUDY   N/A N/A N/A E3        30.04R
MARATHON       CLEAR     84  77  79 CALM      30.04R
KEY WEST NAS   PTCLDY    84  76  76 SE6       30.04R
KEY WEST INTL  PTCLDY    86  78  77 SE5       30.05R HX  98

STATION/POSITION SKY/WX   TEMP    WIND        PRES    WAVE   SWELL
                          AIR SEA DIR/SP/G            HT/PER HT/PER
                          (F)     (DEG/KT/KT) (MB)    (FT/S) (FT/S)
NAPLES                        89              1016.8
26.0N   85.6W              85 89  150/  2/  2 1017.9R   1/ 7   2/ 7
DRY TORTUGAS               85     130/  2/  2 1017.5R
SAND KEY                   85     130/  5/  6 1018.0R
LONG KEY                   85 89  110/  4/  6 1017.5R

$$
FLZ067-068-071>074-168-172>174-300300-
SOUTHEAST FLORIDA

CITY           SKY/WX    TMP DP  RH WIND       PRES   REMARKS
W PALM BEACH   CLOUDY    83  73  72 W8        30.03S
BOCA RATON     CLEAR     82  73  74 W5        30.04R
FT LAUDER-EXEC CLEAR     82  71  69 NW5       30.04R
FT LAUDERDALE  MOCLDY    85  76  74 S6        30.03R
POMPANO BEACH  CLEAR     84  71  65 NW6       30.04R
PEMBROKE PINES CLEAR     84  71  65 CALM      30.05R
OPA LOCKA      PTCLDY    82  72  71 W3        30.05R
MIAMI          MOCLDY    84  72  67 CALM      30.05R
WEST KENDALL   PTCLDY    80  73  79 NW3       30.04R
HOMESTEAD      PTCLDY    82  77  84 CALM      30.04R

STATION/POSITION SKY/WX   TEMP    WIND        PRES    WAVE   SWELL
                          AIR SEA DIR/SP/G            HT/PER HT/PER
                          (F)     (DEG/KT/KT) (MB)    (FT/S) (FT/S)
PORT EVERGLADES            86     120/  2/  4 1016.8F
VIRGINIA KEY                  91  150/  2/  2   N/A
LAKE WORTH                        170/  8/  8   N/A
FOWEY ROCKS                85 86  130/  4/  4 1017.7R
SETTLEMENT POINT           85     150/  1/  1 1017.8S

$$




USA.gov is the U.S. government's official web portal to all federal, state and local government web resources and services.